QPF
0.01 0.02 0.01 0.01 0.01 0.02 0.02 0.01 0.01 0.01 0.00 0.00 0.00 0.00 0.00 0.00 0.00 0.00 0.01 0.01 0.01 0.02 0.02 0.03 0.04 0.04 0.05 0.04 0.03 0.02 0.02 0.01 0.01 0.02 0.02 0.02 0.03 0.03 0.02 0.01 0.01 0.02 0.03 0.03
0.01 0.01 0.01 0.00 0.01 0.01 0.02 0.02 0.01 0.01 0.00 0.00 0.00 0.01 0.01 0.01 0.01 0.01 0.01 0.01 0.02 0.02 0.03 0.03 0.02 0.02 0.02 0.02 0.02 0.01 0.01 0.01 0.01 0.02 0.02 0.02 0.02 0.01 0.01 0.01 0.01 0.02 0.02 0.02
0.01 0.01 0.02 0.02 0.01 0.01 0.01 0.01 0.01 0.01 0.01 0.01 0.01 0.01 0.01 0.01 0.01 0.01 0.01 0.01 0.01 0.02 0.02 0.03 0.04 0.04 0.02 0.02 0.01 0.01 0.01 0.01 0.01 0.02 0.02 0.01 0.01 0.01 0.01 0.01 0.01 0.01 0.01 0.01
0.01 0.01 0.02 0.03 0.02 0.02 0.01 0.01 0.01 0.01 0.01 0.01 0.02 0.01 0.01 0.01 0.01 0.01 0.01 0.01 0.01 0.02 0.02 0.03 0.04 0.07 0.06 0.03 0.01 0.01 0.00 0.01 0.01 0.02 0.01 0.01 0.01 0.01 0.01 0.01 0.01 0.01 0.02 0.01
0.02 0.02 0.03 0.02 0.03 0.03 0.03 0.02 0.01 0.01 0.01 0.01 0.01 0.01 0.01 0.01 0.01 0.01 0.01 0.01 0.01 0.01 0.02 0.03 0.03 0.03 0.06 0.05 0.02 0.01 0.01 0.01 0.01 0.01 0.01 0.01 0.01 0.01 0.01 0.02 0.03 0.03 0.03 0.03
0.02 0.02 0.03 0.03 0.02 0.02 0.05 0.05 0.02 0.01 0.01 0.00 0.01 0.01 0.01 0.01 0.01 0.01 0.01 0.01 0.01 0.01 0.01 0.02 0.01 0.01 0.02 0.03 0.04 0.02 0.01 0.01 0.01 0.01 0.01 0.01 0.01 0.01 0.02 0.02 0.02 0.02 0.02 0.02
0.01 0.01 0.02 0.02 0.02 0.01 0.04 0.06 0.03 0.02 0.01 0.01 0.01 0.01 0.01 0.01 0.01 0.01 0.01 0.01 0.01 0.01 0.01 0.02 0.02 0.01 0.01 0.01 0.02 0.02 0.02 0.01 0.01 0.01 0.01 0.02 0.02 0.01 0.01 0.01 0.01 0.01 0.01 0.01
0.01 0.01 0.02 0.02 0.02 0.02 0.03 0.02 0.02 0.01 0.01 0.01 0.01 0.00 0.00 0.01 0.01 0.01 0.02 0.01 0.01 0.01 0.01 0.02 0.02 0.02 0.01 0.01 0.01 0.02 0.02 0.01 0.01 0.01 0.01 0.01 0.01 0.01 0.02 0.02 0.01 0.01 0.00 0.01
0.01 0.02 0.02 0.02 0.02 0.02 0.01 0.01 0.01 0.01 0.01 0.01 0.01 0.00 0.00 0.01 0.01 0.02 0.02 0.01 0.01 0.01 0.01 0.01 0.02 0.02 0.02 0.01 0.01 0.01 0.01 0.01 0.01 0.01 0.01 0.01 0.01 0.01 0.01 0.01 0.01 0.01 0.01 0.01
0.01 0.01 0.01 0.01 0.01 0.01 0.01 0.01 0.01 0.01 0.01 0.01 0.01 0.01 0.01 0.00 0.00 0.01 0.01 0.01 0.01 0.01 0.01 0.01 0.01 0.01 0.01 0.01 0.01 0.01 0.01 0.01 0.02 0.02 0.01 0.01 0.01 0.02 0.02 0.02 0.02 0.02 0.02 0.02
0.01 0.01 0.01 0.01 0.01 0.01 0.01 0.01 0.01 0.01 0.01 0.01 0.01 0.01 0.01 0.01 0.01 0.00 0.00 0.00 0.00 0.00 0.00 0.00 0.00 0.01 0.02 0.01 0.01 0.01 0.01 0.01 0.01 0.01 0.01 0.01 0.01 0.02 0.02 0.02 0.02 0.02 0.02 0.02
0.01 0.01 0.01 0.01 0.01 0.00 0.00 0.00 0.00 0.01 0.01 0.02 0.01 0.01 0.01 0.01 0.01 0.01 0.00 0.00 0.00 0.00 0.00 0.00 0.00 0.01 0.02 0.02 0.01 0.01 0.01 0.01 0.01 0.01 0.01 0.01 0.02 0.02 0.02 0.02 0.03 0.03 0.02 0.02
0.00 0.00 0.00 0.00 0.00 0.00 0.00 0.00 0.00 0.00 0.00 0.01 0.01 0.01 0.01 0.00 0.00 0.01 0.01 0.01 0.00 0.00 0.00 0.00 0.00 0.00 0.01 0.02 0.02 0.02 0.02 0.01 0.01 0.01 0.01 0.01 0.01 0.02 0.02 0.02 0.02 0.02 0.02 0.03
0.00 0.00 0.00 0.00 0.00 0.00 0.00 0.00 0.00 0.00 0.00 0.00 0.00 0.00 0.00 0.00 0.00 0.00 0.00 0.00 0.00 0.01 0.01 0.01 0.01 0.01 0.01 0.01 0.02 0.03 0.03 0.02 0.01 0.01 0.01 0.01 0.01 0.01 0.01 0.01 0.01 0.01 0.01 0.01
0.00 0.00 0.00 0.00 0.00 0.00 0.00 0.00 0.00 0.00 0.00 0.00 0.00 0.00 0.01 0.01 0.01 0.00 0.00 0.00 0.00 0.01 0.02 0.01 0.01 0.01 0.02 0.02 0.02 0.02 0.02 0.03 0.02 0.01 0.01 0.01 0.01 0.01 0.01 0.01 0.01 0.00 0.00 0.00
0.00 0.00 0.00 0.00 0.00 0.00 0.00 0.00 0.00 0.00 0.00 0.00 0.00 0.00 0.01 0.01 0.01 0.00 0.01 0.01 0.01 0.01 0.01 0.01 0.01 0.01 0.02 0.02 0.02 0.02 0.02 0.02 0.02 0.01 0.01 0.01 0.01 0.01 0.01 0.01 0.00 0.00 0.00 0.00
0.00 0.00 0.00 0.00 0.00 0.00 0.00 0.00 0.00 0.00 0.00 0.00 0.00 0.01 0.01 0.02 0.03 0.02 0.01 0.01 0.01 0.01 0.01 0.01 0.01 0.01 0.01 0.01 0.01 0.02 0.02 0.01 0.02 0.02 0.01 0.01 0.01 0.01 0.01 0.01 0.00 0.00 0.00 0.01
0.00 0.00 0.00 0.00 0.00 0.00 0.00 0.00 0.00 0.01 0.01 0.01 0.01 0.01 0.02 0.03 0.04 0.03 0.01 0.00 0.01 0.01 0.01 0.01 0.01 0.01 0.00 0.00 0.00 0.01 0.01 0.01 0.01 0.01 0.01 0.01 0.02 0.02 0.02 0.02 0.01 0.02 0.02 0.02
0.00 0.00 0.00 0.00 0.00 0.00 0.00 0.00 0.00 0.01 0.01 0.02 0.02 0.02 0.03 0.02 0.03 0.03 0.01 0.01 0.00 0.00 0.00 0.01 0.01 0.01 0.00 0.00 0.01 0.01 0.01 0.01 0.01 0.01 0.01 0.02 0.02 0.02 0.03 0.03 0.02 0.02 0.02 0.02
0.00 0.00 0.00 0.00 0.00 0.00 0.00 0.00 0.00 0.00 0.01 0.01 0.02 0.02 0.02 0.02 0.03 0.04 0.02 0.01 0.01 0.01 0.01 0.01 0.01 0.01 0.01 0.01 0.01 0.01 0.01 0.02 0.02 0.02 0.02 0.02 0.03 0.03 0.03 0.03 0.03 0.03 0.02 0.02
0.00 0.00 0.00 0.00 0.00 0.00 0.00 0.00 0.00 0.00 0.00 0.01 0.02 0.02 0.01 0.01 0.01 0.01 0.01 0.01 0.01 0.00 0.01 0.01 0.01 0.01 0.01 0.02 0.02 0.02 0.02 0.02 0.03 0.03 0.04 0.04 0.03 0.03 0.02 0.02 0.02 0.02 0.02 0.02
0.00 0.00 0.00 0.00 0.00 0.00 0.00 0.00 0.00 0.00 0.00 0.00 0.01 0.01 0.00 0.00 0.00 0.00 0.00 0.00 0.01 0.00 0.00 0.01 0.01 0.01 0.02 0.02 0.01 0.02 0.02 0.02 0.03 0.03 0.03 0.04 0.03 0.03 0.03 0.03 0.02 0.02 0.02 0.02
0.00 0.00 0.00 0.00 0.00 0.00 0.00 0.00 0.00 0.00 0.00 0.00 0.00 0.00 0.00 0.00 0.00 0.00 0.00 0.00 0.00 0.00 0.00 0.01 0.01 0.02 0.02 0.01 0.01 0.01 0.02 0.02 0.03 0.03 0.03 0.03 0.04 0.03 0.03 0.04 0.04 0.03 0.02 0.02
0.00 0.00 0.00 0.00 0.00 0.00 0.00 0.00 0.00 0.00 0.00 0.00 0.00 0.00 0.00 0.00 0.00 0.00 0.00 0.00 0.00 0.00 0.00 0.00 0.01 0.01 0.01 0.02 0.02 0.02 0.02 0.02 0.02 0.03 0.03 0.03 0.03 0.04 0.04 0.04 0.03 0.03 0.03 0.02
0.00 0.00 0.00 0.00 0.00 0.00 0.00 0.00 0.00 0.00 0.00 0.00 0.00 0.00 0.00 0.00 0.00 0.00 0.00 0.00 0.00 0.00 0.00 0.00 0.00 0.01 0.01 0.01 0.02 0.02 0.02 0.02 0.03 0.03 0.03 0.03 0.04 0.04 0.04 0.03 0.02 0.02 0.02 0.02
0.00 0.00 0.00 0.00 0.00 0.00 0.00 0.01 0.01 0.00 0.00 0.01 0.00 0.00 0.00 0.00 0.00 0.00 0.00 0.00 0.00 0.00 0.00 0.00 0.00 0.00 0.01 0.01 0.01 0.01 0.02 0.02 0.03 0.03 0.02 0.03 0.03 0.03 0.02 0.02 0.02 0.02 0.02 0.02
0.00 0.00 0.00 0.00 0.00 0.00 0.00 0.00 0.01 0.01 0.01 0.00 0.00 0.00 0.00 0.00 0.00 0.00 0.00 0.00 0.00 0.00 0.00 0.00 0.00 0.00 0.00 0.01 0.01 0.01 0.01 0.01 0.02 0.02 0.02 0.01 0.02 0.02 0.03 0.03 0.03 0.02 0.02 0.03
MSLP
1027.73 1027.94 1028.14 1028.35 1028.57 1028.78 1028.98 1029.16 1029.30 1029.42 1029.53 1029.65 1029.79 1029.98 1030.23 1030.54 1030.90 1031.29 1031.68 1032.04 1032.35 1032.59 1032.75 1032.84 1032.86 1032.85 1032.81 1032.76 1032.71 1032.66 1032.59 1032.51 1032.40 1032.26 1032.08 1031.86 1031.61 1031.34 1031.05 1030.75 1030.43 1030.08 1029.71 1029.29
1027.98 1028.16 1028.31 1028.44 1028.56 1028.67 1028.77 1028.85 1028.94 1029.03 1029.14 1029.28 1029.48 1029.72 1030.03 1030.39 1030.79 1031.20 1031.61 1031.98 1032.29 1032.55 1032.75 1032.89 1032.98 1033.04 1033.08 1033.10 1033.11 1033.11 1033.08 1033.02 1032.93 1032.80 1032.63 1032.43 1032.20 1031.96 1031.70 1031.42 1031.12 1030.79 1030.43 1030.02
1028.22 1028.36 1028.44 1028.49 1028.52 1028.54 1028.56 1028.59 1028.63 1028.71 1028.83 1029.00 1029.23 1029.52 1029.86 1030.25 1030.66 1031.07 1031.46 1031.83 1032.15 1032.42 1032.65 1032.83 1032.99 1033.12 1033.24 1033.33 1033.41 1033.46 1033.47 1033.44 1033.38 1033.26 1033.12 1032.94 1032.74 1032.52 1032.29 1032.05 1031.77 1031.46 1031.11 1030.70
1028.40 1028.45 1028.46 1028.42 1028.37 1028.32 1028.28 1028.27 1028.30 1028.38 1028.52 1028.73 1028.99 1029.31 1029.67 1030.07 1030.47 1030.88 1031.26 1031.62 1031.94 1032.23 1032.49 1032.72 1032.93 1033.13 1033.31 1033.47 1033.60 1033.69 1033.74 1033.75 1033.71 1033.62 1033.50 1033.35 1033.18 1033.00 1032.81 1032.59 1032.34 1032.05 1031.71 1031.31
1028.44 1028.39 1028.29 1028.17 1028.04 1027.94 1027.87 1027.84 1027.88 1027.99 1028.16 1028.40 1028.70 1029.04 1029.43 1029.83 1030.24 1030.64 1031.02 1031.37 1031.71 1032.01 1032.31 1032.58 1032.85 1033.10 1033.33 1033.53 1033.70 1033.83 1033.91 1033.93 1033.91 1033.85 1033.75 1033.64 1033.51 1033.36 1033.20 1033.01 1032.79 1032.52 1032.19 1031.79
1028.28 1028.12 1027.92 1027.72 1027.53 1027.39 1027.31 1027.29 1027.35 1027.49 1027.71 1027.99 1028.32 1028.70 1029.11 1029.53 1029.94 1030.35 1030.74 1031.12 1031.47 1031.81 1032.14 1032.45 1032.76 1033.05 1033.31 1033.55 1033.73 1033.88 1033.96 1034.00 1033.99 1033.95 1033.87 1033.79 1033.69 1033.58 1033.45 1033.29 1033.09 1032.84 1032.52 1032.13
1027.90 1027.64 1027.36 1027.09 1026.87 1026.71 1026.63 1026.64 1026.74 1026.92 1027.18 1027.51 1027.89 1028.30 1028.73 1029.17 1029.61 1030.04 1030.46 1030.86 1031.25 1031.62 1031.99 1032.34 1032.68 1032.99 1033.28 1033.52 1033.71 1033.84 1033.93 1033.96 1033.96 1033.92 1033.87 1033.81 1033.73 1033.65 1033.55 1033.42 1033.24 1033.00 1032.69 1032.32
1027.30 1026.97 1026.63 1026.33 1026.10 1025.95 1025.90 1025.95 1026.10 1026.33 1026.63 1027.00 1027.42 1027.86 1028.32 1028.78 1029.25 1029.71 1030.15 1030.59 1031.02 1031.44 1031.84 1032.23 1032.59 1032.92 1033.20 1033.44 1033.62 1033.74 1033.82 1033.84 1033.84 1033.81 1033.76 1033.72 1033.67 1033.61 1033.53 1033.42 1033.25 1033.03 1032.74 1032.37
1026.52 1026.15 1025.81 1025.51 1025.30 1025.19 1025.19 1025.29 1025.49 1025.76 1026.11 1026.51 1026.95 1027.41 1027.89 1028.38 1028.87 1029.35 1029.83 1030.31 1030.77 1031.23 1031.66 1032.07 1032.45 1032.79 1033.07 1033.30 1033.47 1033.58 1033.64 1033.66 1033.65 1033.63 1033.59 1033.56 1033.52 1033.48 1033.41 1033.32 1033.17 1032.95 1032.67 1032.33
1025.62 1025.27 1024.95 1024.70 1024.55 1024.50 1024.56 1024.72 1024.96 1025.28 1025.66 1026.08 1026.53 1026.99 1027.48 1027.97 1028.46 1028.97 1029.47 1029.97 1030.46 1030.95 1031.41 1031.84 1032.23 1032.57 1032.86 1033.08 1033.25 1033.35 1033.41 1033.44 1033.43 1033.41 1033.39 1033.37 1033.35 1033.31 1033.25 1033.16 1033.02 1032.82 1032.56 1032.23
1024.69 1024.38 1024.12 1023.95 1023.88 1023.92 1024.05 1024.27 1024.56 1024.91 1025.30 1025.72 1026.16 1026.61 1027.08 1027.55 1028.04 1028.54 1029.05 1029.56 1030.07 1030.57 1031.04 1031.49 1031.89 1032.24 1032.53 1032.77 1032.94 1033.06 1033.14 1033.18 1033.20 1033.20 1033.20 1033.19 1033.18 1033.15 1033.09 1033.01 1032.87 1032.68 1032.43 1032.12
1023.78 1023.54 1023.38 1023.32 1023.34 1023.47 1023.68 1023.95 1024.28 1024.64 1025.03 1025.43 1025.84 1026.26 1026.69 1027.14 1027.60 1028.07 1028.56 1029.07 1029.57 1030.07 1030.55 1031.00 1031.41 1031.78 1032.09 1032.35 1032.56 1032.71 1032.83 1032.91 1032.97 1033.01 1033.03 1033.04 1033.04 1033.02 1032.97 1032.88 1032.75 1032.56 1032.33 1032.04
1022.95 1022.81 1022.75 1022.79 1022.92 1023.14 1023.42 1023.74 1024.09 1024.46 1024.82 1025.19 1025.56 1025.93 1026.31 1026.71 1027.13 1027.57 1028.03 1028.50 1028.99 1029.47 1029.95 1030.40 1030.83 1031.21 1031.56 1031.85 1032.11 1032.32 1032.50 1032.64 1032.75 1032.84 1032.90 1032.95 1032.96 1032.95 1032.90 1032.81 1032.68 1032.50 1032.27 1032.01
1022.23 1022.18 1022.23 1022.38 1022.60 1022.90 1023.23 1023.59 1023.95 1024.31 1024.65 1024.98 1025.30 1025.62 1025.95 1026.29 1026.66 1027.05 1027.47 1027.91 1028.36 1028.83 1029.29 1029.74 1030.17 1030.58 1030.96 1031.31 1031.62 1031.91 1032.16 1032.37 1032.55 1032.70 1032.81 1032.89 1032.93 1032.93 1032.88 1032.79 1032.66 1032.48 1032.27 1032.02
1021.63 1021.67 1021.82 1022.05 1022.36 1022.72 1023.09 1023.47 1023.84 1024.18 1024.49 1024.78 1025.05 1025.32 1025.60 1025.89 1026.21 1026.55 1026.93 1027.33 1027.75 1028.19 1028.63 1029.07 1029.51 1029.95 1030.36 1030.76 1031.14 1031.50 1031.83 1032.12 1032.38 1032.59 1032.75 1032.87 1032.93 1032.94 1032.90 1032.82 1032.68 1032.51 1032.29 1032.05
1021.12 1021.25 1021.48 1021.79 1022.17 1022.57 1022.98 1023.36 1023.72 1024.04 1024.33 1024.58 1024.81 1025.04 1025.28 1025.53 1025.81 1026.11 1026.45 1026.81 1027.20 1027.61 1028.04 1028.47 1028.92 1029.37 1029.82 1030.27 1030.71 1031.13 1031.53 1031.90 1032.22 1032.49 1032.71 1032.86 1032.95 1032.98 1032.95 1032.86 1032.73 1032.55 1032.34 1032.10
1020.69 1020.89 1021.20 1021.58 1022.00 1022.43 1022.86 1023.25 1023.60 1023.90 1024.16 1024.38 1024.59 1024.79 1025.00 1025.23 1025.48 1025.76 1026.07 1026.41 1026.77 1027.16 1027.56 1027.99 1028.44 1028.90 1029.37 1029.86 1030.34 1030.82 1031.28 1031.71 1032.09 1032.41 1032.67 1032.86 1032.97 1033.01 1032.99 1032.91 1032.77 1032.60 1032.38 1032.14
1020.31 1020.59 1020.96 1021.39 1021.85 1022.31 1022.73 1023.12 1023.45 1023.74 1023.98 1024.19 1024.38 1024.57 1024.77 1024.99 1025.23 1025.50 1025.80 1026.12 1026.47 1026.84 1027.23 1027.64 1028.08 1028.55 1029.04 1029.55 1030.06 1030.58 1031.08 1031.55 1031.97 1032.33 1032.63 1032.84 1032.97 1033.03 1033.02 1032.94 1032.81 1032.63 1032.42 1032.17
1019.96 1020.32 1020.74 1021.22 1021.70 1022.17 1022.59 1022.97 1023.29 1023.56 1023.79 1024.00 1024.19 1024.38 1024.58 1024.81 1025.05 1025.33 1025.62 1025.94 1026.28 1026.64 1027.02 1027.43 1027.86 1028.33 1028.82 1029.34 1029.87 1030.40 1030.92 1031.42 1031.86 1032.25 1032.56 1032.79 1032.95 1033.02 1033.01 1032.95 1032.82 1032.65 1032.43 1032.19
1019.65 1020.07 1020.54 1021.05 1021.55 1022.01 1022.43 1022.80 1023.11 1023.37 1023.59 1023.79 1023.99 1024.19 1024.41 1024.65 1024.91 1025.19 1025.50 1025.82 1026.16 1026.51 1026.89 1027.29 1027.72 1028.18 1028.67 1029.19 1029.72 1030.26 1030.79 1031.29 1031.74 1032.14 1032.47 1032.71 1032.88 1032.96 1032.98 1032.92 1032.81 1032.64 1032.44 1032.19
1019.37 1019.84 1020.35 1020.87 1021.37 1021.83 1022.24 1022.59 1022.88 1023.13 1023.36 1023.56 1023.77 1023.99 1024.22 1024.48 1024.76 1025.05 1025.37 1025.70 1026.05 1026.41 1026.79 1027.19 1027.62 1028.07 1028.56 1029.07 1029.59 1030.13 1030.65 1031.14 1031.60 1032.00 1032.33 1032.58 1032.76 1032.87 1032.89 1032.86 1032.77 1032.62 1032.43 1032.19
1019.14 1019.64 1020.16 1020.68 1021.17 1021.61 1022.00 1022.33 1022.61 1022.85 1023.07 1023.28 1023.50 1023.73 1023.98 1024.26 1024.56 1024.87 1025.20 1025.55 1025.90 1026.27 1026.66 1027.06 1027.49 1027.95 1028.42 1028.93 1029.44 1029.97 1030.48 1030.96 1031.41 1031.81 1032.14 1032.40 1032.59 1032.71 1032.76 1032.76 1032.69 1032.57 1032.40 1032.19
1018.95 1019.46 1019.98 1020.48 1020.93 1021.34 1021.70 1022.00 1022.27 1022.50 1022.72 1022.94 1023.17 1023.41 1023.68 1023.98 1024.29 1024.62 1024.97 1025.33 1025.69 1026.07 1026.47 1026.88 1027.31 1027.76 1028.24 1028.74 1029.25 1029.76 1030.26 1030.73 1031.17 1031.56 1031.89 1032.16 1032.36 1032.50 1032.58 1032.60 1032.57 1032.49 1032.36 1032.18
1018.81 1019.30 1019.78 1020.24 1020.65 1021.02 1021.34 1021.61 1021.86 1022.08 1022.30 1022.53 1022.77 1023.03 1023.32 1023.63 1023.96 1024.30 1024.66 1025.03 1025.41 1025.80 1026.20 1026.62 1027.06 1027.51 1027.99 1028.48 1028.99 1029.49 1029.98 1030.44 1030.87 1031.25 1031.58 1031.86 1032.07 1032.23 1032.34 1032.39 1032.40 1032.36 1032.28 1032.15
1018.69 1019.13 1019.56 1019.95 1020.31 1020.63 1020.90 1021.15 1021.38 1021.60 1021.83 1022.07 1022.32 1022.60 1022.91 1023.23 1023.57 1023.93 1024.29 1024.67 1025.06 1025.45 1025.86 1026.29 1026.73 1027.19 1027.67 1028.17 1028.66 1029.16 1029.63 1030.09 1030.51 1030.89 1031.22 1031.49 1031.72 1031.90 1032.04 1032.13 1032.18 1032.18 1032.15 1032.08
1018.57 1018.95 1019.30 1019.62 1019.91 1020.17 1020.41 1020.63 1020.85 1021.07 1021.30 1021.56 1021.84 1022.14 1022.46 1022.80 1023.15 1023.51 1023.88 1024.26 1024.65 1025.05 1025.47 1025.90 1026.35 1026.81 1027.30 1027.79 1028.28 1028.77 1029.24 1029.69 1030.10 1030.47 1030.80 1031.08 1031.32 1031.52 1031.68 1031.80 1031.89 1031.94 1031.96 1031.94
1018.41 1018.70 1018.96 1019.21 1019.43 1019.64 1019.84 1020.05 1020.26 1020.49 1020.75 1021.02 1021.32 1021.65 1021.99 1022.34 1022.70 1023.07 1023.45 1023.83 1024.22 1024.62 1025.03 1025.46 1025.91 1026.38 1026.86 1027.35 1027.85 1028.33 1028.80 1029.24 1029.65 1030.02 1030.34 1030.63 1030.88 1031.09 1031.26 1031.41 1031.53 1031.63 1031.69 1031.72
Thickness
5634 5639 5640 5641 5642 5640 5638 5635 5631 5636 5638 5644 5646 5647 5648 5650 5650 5649 5648 5647 5646 5644 5643 5641 5640 5638 5635 5633 5631 5629 5627 5624 5622 5620 5618 5617 5616 5614 5613 5611 5610 5608 5607 5606
5631 5636 5636 5634 5637 5636 5636 5636 5634 5635 5636 5643 5643 5641 5641 5641 5642 5640 5640 5641 5640 5639 5638 5636 5634 5632 5629 5627 5625 5623 5621 5618 5616 5614 5613 5611 5610 5608 5606 5605 5603 5601 5600 5599
5617 5626 5631 5625 5631 5631 5632 5632 5633 5630 5635 5636 5636 5637 5636 5636 5635 5635 5635 5635 5634 5633 5632 5631 5629 5627 5624 5622 5619 5616 5614 5612 5611 5609 5607 5605 5604 5601 5599 5597 5595 5594 5593 5592
5607 5616 5612 5624 5633 5633 5630 5630 5630 5632 5632 5632 5634 5634 5633 5632 5631 5630 5629 5628 5628 5627 5626 5625 5624 5622 5620 5617 5614 5611 5608 5605 5604 5603 5601 5599 5597 5595 5593 5591 5589 5587 5586 5585
5597 5602 5607 5620 5627 5626 5624 5624 5626 5625 5626 5627 5628 5627 5625 5628 5627 5626 5625 5624 5624 5623 5621 5619 5618 5616 5614 5610 5607 5605 5603 5601 5599 5597 5595 5593 5591 5589 5587 5585 5583 5581 5581 5580
5590 5599 5600 5614 5624 5626 5624 5617 5622 5620 5618 5618 5619 5612 5616 5622 5621 5620 5619 5618 5618 5617 5615 5612 5609 5608 5606 5603 5600 5599 5598 5596 5594 5592 5589 5587 5585 5583 5581 5579 5578 5576 5575 5574
5586 5590 5597 5609 5616 5621 5609 5609 5616 5615 5613 5612 5611 5612 5614 5615 5614 5614 5613 5612 5611 5609 5607 5604 5602 5600 5598 5595 5594 5593 5592 5590 5588 5586 5584 5582 5579 5577 5575 5573 5571 5570 5568 5568
5579 5583 5592 5605 5607 5605 5605 5609 5609 5609 5608 5606 5605 5606 5606 5607 5606 5606 5605 5604 5603 5600 5598 5596 5594 5592 5590 5588 5588 5586 5585 5583 5581 5579 5578 5576 5572 5570 5568 5566 5564 5562 5561 5561
5583 5589 5595 5598 5602 5604 5603 5601 5601 5601 5602 5600 5599 5598 5598 5598 5597 5597 5596 5596 5594 5592 5589 5587 5586 5585 5583 5581 5580 5579 5577 5575 5574 5572 5570 5568 5566 5563 5561 5559 5557 5556 5555 5554
5578 5586 5590 5593 5595 5596 5596 5596 5596 5596 5595 5593 5591 5591 5590 5589 5588 5588 5587 5586 5585 5582 5580 5578 5577 5576 5575 5574 5573 5571 5569 5567 5566 5564 5562 5560 5559 5557 5555 5553 5551 5551 5549 5548
5573 5579 5584 5589 5588 5589 5590 5590 5589 5588 5587 5586 5584 5583 5582 5580 5580 5579 5578 5577 5575 5574 5572 5570 5568 5567 5566 5565 5564 5562 5561 5559 5557 5555 5554 5552 5551 5550 5549 5548 5547 5545 5544 5543
5574 5579 5576 5581 5585 5585 5583 5582 5581 5580 5579 5578 5576 5575 5574 5573 5572 5571 5569 5567 5566 5564 5563 5561 5561 5559 5558 5558 5556 5554 5552 5550 5548 5546 5545 5544 5542 5542 5542 5542 5541 5540 5539 5537
5576 5578 5576 5578 5579 5579 5577 5576 5575 5573 5572 5569 5568 5568 5567 5565 5563 5562 5561 5559 5558 5556 5555 5554 5553 5551 5551 5550 5548 5546 5544 5542 5540 5538 5537 5535 5534 5533 5532 5533 5532 5532 5531 5530
5569 5569 5569 5570 5570 5570 5570 5568 5566 5565 5564 5563 5561 5560 5559 5557 5555 5554 5553 5552 5550 5548 5547 5545 5544 5543 5542 5541 5539 5537 5535 5534 5532 5530 5529 5527 5526 5525 5524 5523 5522 5521 5521 5521
5563 5564 5564 5564 5562 5561 5560 5558 5556 5554 5554 5553 5552 5551 5550 5549 5548 5547 5545 5544 5542 5540 5538 5537 5535 5534 5533 5532 5530 5528 5527 5525 5523 5522 5521 5519 5518 5516 5515 5515 5513 5512 5511 5511
5556 5556 5555 5555 5553 5552 5551 5550 5548 5547 5546 5545 5544 5544 5543 5542 5540 5538 5537 5535 5533 5532 5530 5529 5527 5526 5525 5523 5522 5520 5518 5518 5516 5513 5512 5510 5509 5507 5506 5505 5504 5502 5501 5500
5549 5547 5546 5545 5545 5544 5544 5543 5543 5541 5539 5538 5537 5537 5535 5533 5531 5529 5528 5527 5526 5525 5523 5522 5520 5519 5517 5515 5513 5511 5509 5507 5507 5504 5502 5501 5500 5498 5497 5496 5495 5494 5493 5492
5548 5547 5544 5543 5540 5538 5537 5536 5535 5534 5533 5532 5531 5529 5527 5526 5524 5522 5520 5518 5516 5515 5514 5513 5512 5511 5510 5507 5505 5503 5501 5499 5497 5495 5493 5491 5490 5490 5488 5487 5486 5485 5484 5483
5541 5540 5538 5537 5535 5532 5530 5529 5528 5527 5526 5525 5523 5521 5520 5519 5517 5515 5512 5509 5508 5507 5506 5505 5505 5503 5500 5498 5497 5494 5492 5490 5487 5486 5484 5484 5482 5480 5479 5478 5477 5476 5475 5474
5535 5533 5531 5530 5528 5525 5523 5522 5521 5519 5519 5518 5516 5514 5512 5510 5509 5506 5504 5501 5501 5500 5499 5498 5496 5494 5492 5490 5489 5485 5483 5480 5478 5476 5475 5474 5473 5472 5470 5469 5468 5467 5466 5465
5527 5526 5524 5522 5520 5519 5517 5515 5513 5512 5511 5510 5509 5507 5505 5503 5501 5499 5496 5494 5494 5492 5491 5490 5488 5485 5483 5482 5480 5476 5473 5471 5470 5468 5466 5465 5464 5463 5461 5460 5459 5458 5457 5456
5519 5517 5516 5514 5512 5510 5509 5507 5506 5504 5503 5502 5501 5499 5497 5495 5493 5491 5490 5488 5487 5485 5483 5481 5479 5478 5476 5474 5470 5467 5465 5462 5461 5459 5458 5456 5455 5454 5452 5451 5450 5449 5448 5447
5510 5509 5508 5506 5504 5502 5500 5499 5498 5497 5496 5495 5493 5492 5489 5488 5486 5483 5481 5480 5479 5478 5476 5473 5472 5471 5469 5465 5461 5458 5456 5454 5452 5450 5449 5448 5446 5445 5444 5442 5441 5440 5439 5438
5502 5501 5500 5498 5496 5493 5492 5491 5490 5489 5488 5487 5485 5484 5482 5479 5478 5477 5475 5474 5473 5471 5467 5465 5464 5463 5460 5455 5452 5449 5447 5445 5443 5442 5441 5439 5438 5436 5435 5434 5433 5432 5431 5430
5495 5493 5491 5489 5487 5486 5485 5483 5481 5479 5478 5477 5476 5475 5474 5473 5471 5469 5467 5465 5464 5462 5459 5457 5456 5454 5450 5447 5444 5442 5439 5438 5436 5435 5433 5431 5430 5429 5427 5426 5425 5424 5423 5422
5488 5486 5485 5483 5481 5479 5477 5474 5472 5471 5470 5468 5467 5466 5465 5464 5463 5460 5458 5457 5455 5453 5450 5448 5446 5444 5441 5439 5437 5434 5432 5430 5428 5427 5425 5424 5423 5422 5420 5419 5418 5417 5416 5415
5479 5478 5475 5473 5472 5471 5469 5467 5465 5464 5462 5461 5459 5457 5456 5455 5453 5451 5450 5448 5446 5444 5442 5440 5438 5435 5433 5431 5428 5426 5424 5423 5421 5419 5418 5416 5415 5414 5413 5412 5411 5410 5409 5408